www.pogodaiklimat.ru

Погода и климат >> Архив погоды >> Россия >> Ивановская область >> Иваново


АРХИВ ПОГОДЫ в Иванове

Время (UTC), дата Ветер
(напр.,м/с)
 
Видим.   Явления Облачность Т
(С)
Тd
(С)
f
(%)
Тe
(С)
Тes
(С)
Комфортность P
(гПа)
Po
(гПа)
Тmin
(С)
Tmax
(С)
R
(мм)
R24
(мм)
S
(см)
09 16.02 СЗ 8-11
{14}
10 км 6/6 960 м
[Cu Sc]
+2.4 -4.1 62 -4 -4 тепло 1010.1 994.5
12 16.02 З 4
{11}
10 км ясно +2.3 -3.5 65 -2 -1 тепло 1010.5 994.9
15 16.02 ЮЗ 2 10 км 8/0
[Ac trans]
-0.1 -4.6 72 -3 -3 тепло 1010.1 994.4 +3.2
18 16.02 Ю 2 10 км 6/0
[Ac trans]
-2.0 -5.0 80 -6 -6 тепло 1007.8 992.0
21 16.02 ЮЗ 2 10 км 10/8 500 м
[Sc Ac trans]
-0.4 -2.8 84 -4 -4 тепло 1004.2 988.6
00 17.02 ЮЗ 4 10 км 10/8 420 м
[Sc Ac trans]
+0.6 -1.9 83 -5 -5 тепло 999.3 983.8
03 17.02 З 4 10 км 8/5 540 м
[Sc Ac trans]
-0.3 -3.1 81 -6 -6 тепло 995.0 979.5 -3.1 49
06 17.02 З 4 10 км 9/6 1000 м
[Sc Ac As]
+0.4 -3.1 77 -5 -5 тепло 992.9 977.4
09 17.02 СЗ 7-11
{14}
10 км 9/6 900 м
[Sc Ac As]
+2.0 -2.5 72 -4 -4 тепло 992.1 976.8
12 17.02 СЗ 8-12
{12}
4000 м слаб. снег 10/8 600 м
[Sc Ac und]
+1.6 -4.5 64 -5 -5 тепло 991.9 976.5
15 17.02 СЗ 8-11
{13}
3000 м слаб. ливневой снег 10/10 300 м
[Cb cap]
-0.1 -3.3 79 -8 -8 по сезону 993.2 977.7 +2.6 0.4
18 17.02 СЗ 7-10
{13}
4000 м слаб. ливневой снег 10/10 450 м
[Cb cap]
-0.2 -3.1 81 -7 -7 тепло 993.9 978.4
21 17.02 СЗ 9-13
{15}
4000 м слаб. ливневой снег 10/10 300 м
[Cb cap]
-0.9 -3.7 81 -9 -9 по сезону 996.0 980.4
00 18.02 СЗ 9-13
{16}
2000 м слаб. ливневой снег 10/10 300 м
[Cb cap]
-1.9 -4.9 80 -10 -10 по сезону 999.5 983.9
03 18.02 С 9-17
{19}
10 км {ливн. осадки} 8/0
[Ac As]
-2.2 -11.2 50 -10 -10 по сезону 1003.6 987.9 -2.2 0.6 45
06 18.02 С 10-18
{19}
10 км {ливн. осадки} ясно -3.8 -15.8 39 -12 -12 по сезону 1008.4 992.5 -3.8
09 18.02 С 9-18
{18}
10 км 1/1 600 м
[Cu hum]
-3.4 -14.5 42 -11 -11 по сезону 1012.5 996.5
12 18.02 С 8-11
{18}
10 км 4/4 600 м
[Sc diur, vesp]
-3.3 -12.6 49 -11 -11 по сезону 1014.6 998.7
15 18.02 СЗ 7
{12}
10 км 9/6 750 м
[Cb calv Ac trans]
-4.1 -11.3 57 -12 -12 по сезону 1017.2 1001.1 -2.2
18 18.02 С 4
{10}
10 км 3/0
[Ac trans]
-6.5 -13.6 57 -13 -13 по сезону 1019.9 1003.6
21 18.02 СЗ 1 10 км ясно -11.2 -15.4 71 -13 -13 по сезону 1021.2 1004.6
00 19.02 ЮВ 1 10 км ясно -16.5 -18.1 87 -19 -19 прохладно 1021.6 1004.6
03 19.02 ЮЗ 2 4000 м дымка 6/0
[Ci fib]
-13.6 -15.5 86 -18 -18 по сезону 1020.2 1003.5 -17.1 45
06 19.02 ЮЗ 2 10 км 10/0
[Ac und]
-9.5 -13.9 70 -14 -14 по сезону 1017.3 1000.9
09 19.02 ЮЗ 4
{10}
10 км 10/0
[Ac trans Ci fib]
-4.3 -12.6 52 -10 -9 по сезону 1012.0 996.0
12 19.02 З 4
{11}
10 км 10/0
[Ac und]
-0.7 -11.0 46 -6 -5 по сезону 1009.3 993.5
15 19.02 З 2 10 км 10/8 <50 м
[Sc Ac und]
+0.2 -7.7 55 -3 -3 тепло 1008.8 993.1 +0.2
18 19.02 ЮЗ 2 10 км 10/8 800 м
[Sc Ac und]
-0.8 -6.7 64 -4 -4 тепло 1008.0 992.3
21 19.02 ЮЗ 3 10 км 8/0
[Ac As Ci fib]
-1.4 -10.1 52 -6 -6 тепло 1006.0 990.2
00 20.02 Ю 3 10 км 8/5 900 м
[Sc Ac trans]
-2.8 -10.5 55 -7 -7 тепло 1003.7 987.9
03 20.02 ЮЗ 3 10 км 6/0
[Ac trans Ci fib]
-2.8 -8.4 65 -8 -8 тепло 1000.9 985.2 -3.3 43
06 20.02 ЮЗ 4 10 км 10/5 500 м
[Sc Ac trans]
-2.0 -6.0 74 -8 -8 тепло 998.9 983.2 -3.4
09 20.02 ЮЗ 5
{10}
10 км 10/5 400 м
[Sc Ac trans]
-0.3 -2.9 83 -6 -6 тепло 997.9 982.4
12 20.02 ЮЗ 4 10 км 10/6 450 м
[Sc Ac trans]
+1.4 -1.5 81 -4 -3 тепло 997.3 981.9
15 20.02 ЮЗ 3 10 км 10/5 660 м
[Sc Ac trans]
+1.6 -1.2 82 -3 -3 тепло 996.8 981.4 +1.6
18 20.02 ЮЗ 4 10 км 10/5 480 м
[Sc Ac trans]
+1.6 -0.8 84 -3 -3 тепло 996.1 980.7
21 20.02 Ю 3 10 км слаб. дождь 10/6 500 м
[Sc Ac trans]
+1.4 -0.9 85 -3 -3 тепло 995.2 979.8
00 21.02 Ю 3 10 км слаб. дождь 10/8 330 м
[Sc Ac trans]
+0.8 -0.5 91 -4 -4 тепло 993.8 978.4
03 21.02 Ю 2 4000 м слаб. снег {дождь} 10/10 240 м
[Frnb Ns]
+0.6 -0.3 94 -3 -3 тепло 992.8 977.4 +0.4 0.5 44
06 21.02 ЮЗ 2 4000 м слаб. снег {дождь} 10/10 180 м
[Frnb]
+0.3 -0.4 95 -3 -3 тепло 992.9 977.5 +0.2
09 21.02 З 1 10 км в посл. час ливневой дождь 10/10 240 м
[Cb calv]
+1.4 -0.2 89 -1 -1 тепло 993.4 978.0
12 21.02 СЗ 5 4000 м слаб. ливневой снег 10/10 240 м
[Cb calv]
+0.4 -0.8 92 -6 -6 по сезону 994.2 978.7
15 21.02 СЗ 4 4000 м слаб. ливневой снег 10/10 360 м
[Cb calv]
-1.2 -2.5 91 -7 -7 по сезону 996.1 980.5 +1.5 2
18 21.02 С 8-13
{13}
5000 м слаб. ливневой снег {метель} 10/10 400 м
[Cb calv]
-4.6 -7.1 83 -13 -13 по сезону 998.5 982.7
21 21.02 С 6-10
{14}
800 м ливневой снег {метель} 10/10 120 м
[Cb calv]
-8.5 -9.9 90 -17 -17 прохладно 1001.6 985.5
00 22.02 С 6-11
{13}
1700 м сильн. снег {ливн. осадки} 10/10 150 м
[Frnb Ns]
-10.3 -12.5 84 -19 -19 прохладно 1003.9 987.7
03 22.02 С 6-11
{13}
2000 м снег {метель} 10/10 120 м
[Frnb Ns]
-11.0 -13.5 82 -20 -20 холодно 1006.2 989.8 -11.1 3 48
06 22.02 С 6-11
{14}
1500 м сильн. снег 10/10 210 м
[Frnb]
-10.6 -13.2 81 -19 -19 прохладно 1009.1 992.8
09 22.02 С 7-13
{14}
3000 м снег 10/10 240 м
[Frnb]
-10.0 -14.1 72 -19 -19 холодно 1012.9 996.5
12 22.02 С 5-11
{14}
3000 м снег 10/10 600 м
[Sc]
-9.8 -14.0 71 -18 -18 холодно 1016.6 1000.2
15 22.02 С 7-13
{13}
3000 м снег 9/6 600 м
[Sc Ac As]
-8.5 -14.6 61 -17 -17 холодно 1020.0 1003.6 -8.4 0.9
18 22.02 С 6-11
{13}
6000 м слаб. снег 8/6 900 м
[Sc Ac As]
-9.2 -18.8 46 -17 -17 прохладно 1023.7 1007.2
21 22.02 С 5-10
{11}
10 км {снег} 4/0
[Ac As]
-10.6 -18.9 50 -18 -18 прохладно 1026.3 1009.7
00 23.02 С 5
{10}
10 км {снег} 4/0
[Ac As]
-12.1 -16.2 71 -20 -20 холодно 1028.2 1011.4
03 23.02 С 4 10 км 4/0
[Ac As]
-13.2 -15.6 82 -21 -21 холодно 1030.4 1013.5 -13.2 0.4 46
06 23.02 СЗ 2 10 км 4/0
[Ci fib]
-15.0 -17.2 83 -20 -19 прохладно 1031.5 1014.5 -16.5

 

Местоположение метеостанции Иваново (Ивановская область, Россия): широта 56.95 долгота 40.97 высота над уровнем моря 126 м.

В архиве по умолчанию представлена погода в Иванове за последнюю неделю. Архивные данные за месяц целиком и за предыдущие месяцы, начиная с января 2011 года, Вы можете получить, выбрав интересующий диапазон дат из раскрывающегося списка и нажав кнопку "Ввод!".


*Определитесь, кто Вы:
робот инопланетянин человек

Внимание! Время в таблицах - всемирное. Для получения местного времени необходимо прибавить поправку, которая равна 3 ч.

Смотрите также архив погоды в соседних городах и на ближайших метеорологических станциях:

Погода в Тейково (Ивановская область, Россия) (28 км)
Погода в Шуе (Ивановская область, Россия) (28 км)
Погода в Пешном (Атырауская область, Казахстан) (43 км)
Погода в Приволжске (Ивановская область, Россия) (51 км)
Погода в Плесе (Ивановская область, Россия) (63 км)
Погода в Вичуге (Ивановская область, Россия) (65 км)
Погода в Суздале (Владимирская область, Россия) (67 км)
Погода в Коврове (Владимирская область, Россия) (70 км)
Погода в Гаврилов-Яме (Ярославская область, Россия) (80 км)
Погода в Костроме (Костромская область, Россия) (88 км)

Пояснения к столбцам:

Ветер - указаны скорость ветра в м/с - средняя за 10 мин, порывы в срок и между сроками (в фигурных скобках) и направление, откуда дует ветер: С - северный, СВ - северо-восточный, В - восточный, ЮВ - юго-восточный, Ю - южный, ЮЗ - юго-западный, З - западный, СЗ - северо-западный.
Видимость - горизонтальная дальность видимости в метрах или километрах. При видимости от 1 до 10 км при отсутствии осадков обычно наблюдается дымка, при ухудшении видимости до 1 км и менее - туман. В сухую погоду видимость может ухудшаться дымом, пылью или мглою.
Явления - указаны атмосферные явления, наблюдавшиеся в срок или в последний час перед сроком; фигурными скобками обозначены явления, наблюдавшиеся между сроками (за 1-3 часа до срока); квадратными скобками обозначены град или гололедные отложения с указанием их диаметра в мм.
Облачность - указаны через наклонную черту общая и нижняя облачность в баллах и высота нижней границы облаков в метрах; квадратными скобками обозначены формы облаков: Ci - перистые, Cs - перисто-слоистые, Cc - перисто-кучевые, Ac - высококучевые, As - высокослоистые, Sc - слоисто-кучевые, Ns - слоисто-дождевые, Cu - кучевые, Cb - кучево-дождевые. Подробнее классификацию облаков см. в Атласе облаков (PDF).
T - Температура воздуха - температура, измеренная на высоте 2 м над землей.
Td - Температура точки росы - температура, при понижении до которой содержащийся в воздухе водяной пар достигнет насыщения.
f - Относительная влажность воздуха - влажноcть воздуха, измеренная на высоте 2 м над землей.
Te - Эффективная температура - температура, которую ощущает одетый по сезону человек в тени. Характеристика душности погоды. При расчете учитывается влияние влажности воздуха и скорости ветра на теплоощущения человека.
Tes - Эффективная температура на солнце - температура, которую ощущает человек, с поправкой на солнечный нагрев. Характеристика знойности погоды. Зависит от высоты солнца над горизонтом, облачности и скорости ветра. Ночью, в пасмурную погоду, а также при ветре 12 м/с и более поправка равна нулю.
P - Атмосферное давление - приведенное к уровню моря атмосферное давление.
Po - Атмосферное давление - измеренное на уровне метеостанции атмосферное давление.
Tmin - Минимальная температура - минимум температуры воздуха на высоте 2 м над землей.
Tmax - Максимальная температура - максимум температуры воздуха на высоте 2 м над землей.
R - Количество осадков - Количество выпавших осадков за период времени, мм. При наведении курсора мыши на число - период времени, за который выпало указанное количество осадков.
R24 - Количество осадков - Количество выпавших осадков за 24 часа, мм.
S - Снежный покров - Высота снежного покрова, см. При наведении курсора мыши на число - состояние снежного покрова и степень покрытия местности в баллах.